Location: Newark
(34.1333°N, 7.9667°W)
Time: 01:37:12
(UTC+00:00)

Transit 2A - Pass Details

Date: 15 June 2021
Orbit: 598 x 960 km, 66.7° (Epoch: 31 July)

Event Time Altitude Azimuth Distance (km) Brightness Sun altitude
Rises 18:10:22 0° 227° (SW) 2,892 9.4 17.2°
Reaches altitude 10° 18:12:51 10° 237° (WSW) 1,960 8.8 16.7°
Maximum altitude 18:16:46 32° 302° (WNW) 1,032 8.4 15.9°
Drops below altitude 10° 18:20:40 10° 6° (N) 1,942 8.3 15.2°
Sets 18:23:07 0° 17° (NNE) 2,861 9.0 14.7°
